QPF
0.00 0.00 0.00 0.00 0.00 0.00 0.00 0.00 0.00 0.00 0.00 0.00 0.00 0.00 0.00 0.01 0.02 0.02 0.02 0.02 0.02 0.00
0.00 0.00 0.00 0.00 0.00 0.00 0.00 0.00 0.00 0.00 0.00 0.00 0.00 0.00 0.01 0.03 0.09 0.07 0.08 0.03 0.03 0.04
0.00 0.00 0.00 0.00 0.00 0.00 0.00 0.00 0.00 0.00 0.00 0.00 0.00 0.00 0.02 0.05 0.05 0.10 0.09 0.04 0.03 0.02
0.00 0.00 0.00 0.00 0.00 0.00 0.00 0.00 0.00 0.00 0.00 0.00 0.00 0.00 0.00 0.01 0.01 0.06 0.07 0.01 0.00 0.00
0.00 0.00 0.00 0.00 0.00 0.00 0.00 0.00 0.00 0.00 0.00 0.00 0.00 0.00 0.00 0.03 0.01 0.01 0.01 0.00 0.00 0.00
0.00 0.00 0.00 0.00 0.00 0.00 0.00 0.00 0.01 0.01 0.00 0.00 0.00 0.00 0.01 0.06 0.05 0.03 0.02 0.00 0.00 0.00
0.00 0.00 0.00 0.00 0.00 0.00 0.00 0.00 0.01 0.04 0.04 0.03 0.06 0.00 0.05 0.03 0.05 0.08 0.01 0.00 0.00 0.00
0.00 0.00 0.00 0.00 0.00 0.00 0.00 0.00 0.00 0.05 0.06 0.07 0.06 0.05 0.07 0.09 0.04 0.01 0.00 0.00 0.00 0.07
0.00 0.00 0.00 0.00 0.00 0.00 0.00 0.00 0.00 0.00 0.01 0.04 0.06 0.09 0.05 0.07 0.08 0.02 0.01 0.02 0.00 0.01
0.00 0.00 0.00 0.03 0.00 0.00 0.00 0.00 0.00 0.00 0.01 0.02 0.05 0.03 0.03 0.05 0.08 0.05 0.02 0.00 0.00 0.00
0.02 0.02 0.03 0.03 0.00 0.00 0.00 0.00 0.00 0.00 0.02 0.03 0.01 0.01 0.06 0.14 0.10 0.01 0.01 0.01 0.00 0.00
0.02 0.01 0.03 0.06 0.02 0.00 0.00 0.00 0.00 0.00 0.00 0.00 0.01 0.05 0.12 0.14 0.11 0.10 0.06 0.05 0.02 0.01
0.00 0.00 0.01 0.05 0.08 0.06 0.02 0.01 0.01 0.01 0.02 0.03 0.04 0.05 0.07 0.05 0.02 0.01 0.01 0.02 0.02 0.01
0.00 0.00 0.00 0.01 0.04 0.06 0.07 0.08 0.08 0.08 0.07 0.06 0.07 0.04 0.03 0.02 0.01 0.00 0.00 0.00 0.00 0.00
MSLP
1017.10 1017.16 1017.27 1017.41 1017.47 1017.62 1017.73 1017.73 1017.93 1018.25 1018.50 1018.73 1018.93 1018.95 1018.99 1019.02 1019.12 1019.24 1019.27 1019.22 1019.25 1019.00
1016.74 1017.04 1016.95 1017.17 1017.37 1017.45 1017.74 1017.69 1017.77 1017.93 1018.16 1018.26 1018.43 1018.63 1018.72 1018.79 1018.91 1019.00 1019.01 1019.04 1019.05 1019.04
1016.14 1016.52 1016.68 1017.03 1017.23 1017.39 1017.47 1017.53 1017.64 1017.78 1017.91 1017.98 1018.02 1018.19 1018.40 1018.61 1018.60 1018.69 1018.67 1018.67 1018.71 1018.65
1015.48 1015.94 1016.41 1016.57 1016.90 1017.14 1017.26 1017.36 1017.48 1017.67 1017.80 1017.92 1018.01 1018.20 1018.38 1018.45 1018.40 1018.33 1018.43 1018.40 1018.41 1018.31
1014.86 1015.29 1015.64 1016.11 1016.42 1016.73 1016.91 1017.10 1017.18 1017.42 1017.58 1017.66 1017.77 1018.03 1018.24 1018.19 1018.04 1018.14 1018.06 1018.11 1018.11 1018.04
1014.00 1014.55 1014.75 1015.26 1015.77 1016.11 1016.44 1016.69 1016.87 1017.14 1017.29 1017.33 1017.46 1017.64 1017.73 1017.65 1017.73 1017.75 1017.66 1017.78 1017.79 1017.77
1013.21 1013.52 1014.00 1014.43 1015.07 1015.50 1015.82 1016.10 1016.39 1016.67 1016.77 1016.88 1017.12 1017.26 1017.34 1017.32 1017.42 1017.44 1017.44 1017.59 1017.64 1017.61
1012.69 1013.15 1013.54 1013.96 1014.43 1014.97 1015.34 1015.58 1015.85 1016.16 1016.49 1016.78 1017.04 1016.98 1017.00 1017.01 1017.17 1017.22 1017.26 1017.31 1017.38 1017.41
1012.53 1012.88 1013.15 1013.56 1013.96 1014.27 1014.68 1015.05 1015.44 1015.77 1015.96 1016.27 1016.52 1016.71 1016.98 1017.14 1016.92 1017.00 1016.99 1016.96 1017.05 1017.32
1012.46 1012.65 1012.88 1013.12 1013.47 1013.60 1014.01 1014.43 1014.78 1015.15 1015.46 1015.79 1016.23 1016.70 1016.78 1016.87 1016.78 1016.81 1016.90 1017.02 1017.11 1017.23
1012.25 1012.36 1012.65 1012.75 1012.91 1013.28 1013.62 1014.02 1014.22 1014.62 1015.01 1015.50 1016.40 1016.83 1017.06 1017.19 1016.91 1017.03 1017.40 1017.55 1017.73 1017.85
1012.37 1012.41 1012.60 1012.68 1012.89 1013.16 1013.26 1013.77 1014.29 1014.34 1015.00 1015.76 1016.68 1017.03 1017.18 1017.28 1017.23 1017.68 1018.04 1018.15 1018.32 1018.19
1012.47 1012.51 1012.60 1012.65 1012.94 1013.51 1013.61 1013.89 1014.45 1015.06 1015.38 1015.94 1016.57 1016.92 1017.25 1017.37 1017.47 1018.09 1018.45 1018.61 1018.65 1018.73
1011.59 1012.07 1012.31 1012.39 1012.96 1013.34 1013.79 1014.14 1014.49 1015.37 1016.08 1016.48 1016.83 1016.98 1017.27 1017.37 1017.77 1018.17 1018.48 1018.88 1018.88 1019.12
Thickness
5758 5761 5762 5762 5763 5763 5763 5765 5762 5761 5760 5761 5760 5761 5762 5765 5766 5766 5768 5767 5768 5770
5760 5759 5763 5765 5765 5764 5761 5763 5763 5762 5762 5762 5762 5762 5764 5768 5769 5769 5769 5769 5770 5769
5763 5763 5764 5763 5763 5764 5764 5763 5763 5764 5764 5765 5765 5764 5765 5767 5770 5770 5771 5772 5771 5771
5766 5764 5763 5763 5763 5763 5765 5763 5763 5763 5764 5764 5765 5765 5765 5767 5770 5769 5769 5771 5771 5772
5770 5768 5766 5764 5764 5764 5763 5764 5764 5764 5764 5765 5765 5765 5764 5765 5769 5769 5769 5770 5771 5772
5773 5770 5770 5768 5767 5766 5764 5764 5764 5764 5764 5765 5766 5766 5767 5768 5769 5770 5771 5771 5772 5773
5774 5775 5774 5772 5769 5768 5767 5765 5765 5765 5766 5767 5767 5768 5768 5769 5768 5769 5770 5770 5770 5772
5771 5771 5772 5772 5770 5768 5768 5768 5768 5766 5765 5764 5764 5767 5769 5769 5767 5767 5768 5768 5768 5770
5768 5768 5768 5769 5769 5769 5767 5767 5766 5765 5766 5765 5766 5765 5762 5761 5765 5765 5765 5765 5767 5766
5762 5763 5764 5765 5765 5767 5765 5765 5764 5764 5765 5764 5763 5758 5758 5759 5762 5761 5761 5760 5760 5761
5756 5758 5759 5760 5762 5763 5764 5762 5762 5762 5763 5762 5756 5752 5750 5750 5755 5754 5751 5749 5748 5748
5747 5748 5750 5752 5753 5755 5758 5757 5755 5757 5754 5751 5744 5741 5741 5743 5745 5740 5737 5738 5737 5739
5738 5741 5743 5745 5744 5745 5747 5747 5745 5742 5743 5739 5736 5733 5732 5733 5734 5728 5726 5726 5727 5726
5736 5734 5737 5739 5737 5738 5735 5735 5733 5728 5725 5725 5723 5724 5723 5725 5723 5719 5717 5715 5717 5715